Location: Battersea Observatory
(44.4318°N, 76.3841°W)
Time: 21:17:25
(UTC-04:00)

Tiros 1 despin weight - Pass Details

Date: 24 January 2022
Orbit: 592 x 639 km, 48.2° (Epoch: 25 May)

Event Time Altitude Azimuth Distance (km) Brightness Sun altitude
Rises 19:14:14 0° 268° (W) 2,894 ? -23.1°
Reaches altitude 10° 19:16:34 10° 273° (W) 1,996 ? -23.5°
Maximum altitude 19:21:06 56° 352° (N) 751 ? -24.4°
Enters shadow 19:21:12 56° 358° (N) 753 ? -24.4°
Drops below altitude 10° 19:25:42 10° 71° (ENE) 2,024 - -25.2°
Sets 19:28:05 0° 76° (ENE) 2,938 - -25.6°
